1501034400.79,6560,18.31,72918.0,-2.15,-3.47,-3.47,0,*63
1501034402.03,6561,18.31,72922.8,-2.15,-3.47,-3.55,0,*61
1501034403.26,6562,18.31,72922.5,-2.15,-3.43,-3.47,0,*65
1501034404.45,6563,18.31,72922.8,-2.15,-3.31,-3.31,0,*60
1501034405.69,6564,18.31,72918.3,-2.15,-3.43,-3.43,0,*67
1501034406.88,6565,18.31,72918.8,-2.15,-3.31,-3.31,0,*66
1501034408.09,6566,18.31,72916.5,-2.17,-3.11,-3.11,0,*67
1501034409.29,6567,18.31,72916.8,-2.15,-2.99,-3.07,0,*62
1501034410.48,6568,18.31,72918.0,-2.15,-3.07,-3.07,0,*6B
1501034411.69,6569,18.31,72918.0,-2.13,-3.03,-2.95,0,*62
1501034412.88,6570,18.31,72920.5,-2.15,-3.11,-3.19,0,*6A
1501034414.07,6571,18.31,72922.5,-2.15,-3.19,-3.23,0,*6A
1501034415.28,6572,18.31,72920.8,-2.13,-3.19,-3.27,0,*6B
1501034416.5,6573,18.31,72922.5,-2.13,-3.15,-3.07,0,*64
1501034417.72,6574,18.31,72920.3,-2.13,-2.95,-2.95,0,*60
1501034418.93,6575,18.31,72920.5,-2.13,-2.91,-2.87,0,*66
1501034420.14,6576,18.31,72920.3,-2.11,-2.87,-2.87,0,*60
1501034421.35,6577,18.31,72922.8,-2.11,-2.91,-2.91,0,*61
1501034422.61,6578,18.31,72922.5,-2.13,-2.75,-2.75,0,*6C
1501034423.82,6579,18.31,72920.3,-2.11,-2.83,-2.83,0,*6F
1501034425.04,6580,18.31,72920.5,-2.11,-2.99,-2.99,0,*69
1501034426.26,6581,18.31,72920.8,-2.11,-3.15,-3.15,0,*68
1501034427.47,6582,18.31,72922.3,-2.11,-3.15,-3.15,0,*6B
1501034428.68,6583,18.31,72922.5,-2.11,-2.99,-2.91,0,*62
1501034429.89,6584,18.31,72920.0,-2.11,-2.83,-2.83,0,*6D
1501034431.1,6585,18.31,72920.5,-2.11,-2.87,-2.87,0,*6C
1501034432.34,6586,18.31,72920.8,-2.09,-2.71,-2.75,0,*62
1501034433.58,6587,18.31,72920.5,-2.09,-2.59,-2.63,0,*6E
1501034434.83,6588,18.31,72922.3,-2.09,-2.63,-2.63,0,*68
1501034436.07,6589,18.31,72922.5,-2.09,-2.63,-2.63,0,*69
1501034437.31,6590,18.31,72920.3,-2.09,-2.71,-2.71,0,*61
1501034438.53,6591,18.31,72920.5,-2.07,-2.79,-2.79,0,*6E
1501034439.8,6592,18.31,72922.0,-2.07,-2.67,-2.71,0,*6A
1501034441.04,6593,18.31,72922.5,-2.05,-2.59,-2.67,0,*63
1501034442.31,6594,18.31,72922.5,-2.07,-2.47,-2.47,0,*6B
1501034443.5,6595,18.31,72920.8,-2.05,-2.79,-2.79,0,*68
1501034444.69,6596,18.31,72916.8,-2.05,-2.83,-2.95,0,*6C
1501034445.89,6597,18.31,72918.0,-2.05,-2.95,-3.07,0,*60
1501034447.07,6598,18.31,72918.8,-2.01,-3.03,-3.07,0,*65
1501034448.26,6599,18.31,72918.0,-2.05,-3.07,-3.19,0,*6B
1501034449.45,6600,18.31,72918.8,-2.05,-2.99,-2.95,0,*6B
1501034450.65,6601,18.31,72920.0,-2.05,-2.95,-2.87,0,*65
1501034451.84,6602,18.31,72916.5,-2.05,-2.87,-2.95,0,*66
1501034453.03,6603,18.31,72912.0,-2.05,-2.87,-2.87,0,*64
1501034454.22,6604,18.31,72916.8,-2.05,-2.87,-2.87,0,*63
1501034455.42,6605,18.31,72916.8,-2.05,-2.95,-2.95,0,*62
1501034456.61,6606,18.31,72918.8,-2.05,-2.99,-3.07,0,*67
1501034457.8,6607,18.31,72914.3,-2.05,-2.99,-3.07,0,*66
1501034458.99,6608,18.31,72914.5,-2.05,-2.87,-2.87,0,*6F
1501034460.18,6609,18.31,72916.5,-2.01,-2.79,-2.83,0,*6F
1501034461.36,6610,18.31,72918.0,-2.01,-2.91,-2.91,0,*62
1501034462.54,6611,18.31,72914.0,-2.01,-2.91,-2.95,0,*67
1501034463.72,6612,18.31,72912.3,-2.01,-2.83,-2.91,0,*63
1501034464.9,6613,18.31,72914.0,-2.01,-2.91,-2.91,0,*61
1501034466.08,6614,18.31,72912.8,-2.01,-2.83,-2.83,0,*66
1501034467.27,6615,18.31,72918.8,-2.01,-2.83,-2.83,0,*67
1501034468.45,6616,18.31,72916.3,-2.01,-2.83,-2.83,0,*64
1501034469.66,6617,18.31,72914.5,-1.99,-2.83,-2.83,0,*67
1501034470.84,6618,18.31,72918.5,-2.01,-2.79,-2.79,0,*6A
1501034472.03,6619,18.31,72914.5,-2.01,-2.79,-2.79,0,*6B
1501034473.21,6620,18.31,72916.0,-2.01,-2.79,-2.79,0,*61
1501034474.47,6621,18.31,72918.0,-1.99,-2.67,-2.75,0,*61
1501034475.66,6622,18.31,72916.3,-2.01,-2.79,-2.79,0,*63
1501034476.87,6623,18.31,72918.0,-1.99,-2.79,-2.79,0,*60
1501034478.13,6624,18.31,72916.5,-1.99,-2.67,-2.67,0,*67
1501034479.34,6625,18.31,72920.5,-1.99,-2.79,-2.79,0,*66
1501034480.55,6626,18.31,72918.0,-1.99,-2.83,-2.91,0,*66
1501034481.74,6627,18.31,72918.8,-1.97,-2.79,-2.87,0,*6B
1501034482.92,6628,18.31,72916.5,-1.97,-2.79,-2.79,0,*65
1501034484.13,6629,18.31,72922.5,-1.97,-2.79,-2.75,0,*68
1501034485.31,6630,18.31,72916.3,-1.97,-2.87,-2.87,0,*6C
1501034486.49,6631,18.31,72918.0,-1.97,-2.91,-2.87,0,*6A
1501034487.67,6632,18.31,72918.5,-1.97,-2.99,-2.91,0,*66
1501034488.86,6633,18.31,72918.3,-1.97,-2.91,-2.99,0,*67
1501034490.04,6634,18.31,72922.5,-1.97,-2.99,-3.03,0,*6A
1501034491.26,6635,18.31,72916.8,-1.95,-2.99,-3.03,0,*69
1501034492.44,6636,18.31,72922.0,-1.97,-2.99,-2.99,0,*6A
1501034493.63,6637,18.31,72916.3,-1.97,-2.99,-2.99,0,*6B
1501034494.82,6638,18.31,72918.5,-1.97,-3.03,-3.03,0,*64
1501034496.0,6639,18.31,72922.3,-1.97,-3.03,-3.03,0,*65
1501034497.18,6640,18.31,72918.0,-1.97,-2.99,-3.03,0,*69
1501034498.36,6641,18.31,72916.8,-1.97,-2.91,-2.91,0,*6A
1501034499.54,6642,18.31,72920.5,-1.97,-2.79,-2.79,0,*69
1501034500.72,6643,18.31,72918.8,-1.97,-2.87,-2.91,0,*6F
1501034501.94,6644,18.31,72920.8,-1.95,-2.99,-3.03,0,*6F
1501034503.12,6645,18.31,72920.3,-1.97,-3.03,-3.03,0,*6E
1501034504.31,6646,18.31,72920.8,-1.97,-3.03,-2.99,0,*6F
1501034505.49,6647,18.31,72920.3,-1.97,-3.03,-3.11,0,*6F
1501034506.7,6648,18.31,72918.5,-1.95,-3.03,-3.11,0,*62
1501034507.89,6649,18.31,72920.5,-1.97,-3.03,-3.03,0,*62
1501034509.08,6650,18.31,72922.3,-1.97,-2.99,-2.99,0,*6A
1501034510.26,6651,18.31,72922.3,-1.97,-2.99,-2.99,0,*6B
1501034511.45,6652,18.31,72920.8,-1.97,-2.87,-2.87,0,*68
1501034512.69,6653,18.31,72916.0,-1.97,-2.71,-2.75,0,*6D
1501034513.92,6654,18.31,72918.3,-1.97,-2.75,-2.75,0,*6E
1501034515.16,6655,18.31,72922.3,-1.97,-2.75,-2.75,0,*6F
1501034516.4,6656,18.31,72920.5,-1.97,-2.75,-2.75,0,*6C
1501034517.58,6657,18.31,72918.3,-1.97,-2.79,-2.87,0,*6C
1501034518.77,6658,18.31,72916.8,-1.97,-2.99,-2.99,0,*62
1501034519.95,6659,18.31,72922.3,-1.97,-2.91,-2.99,0,*6B
1501034521.17,6660,18.31,72918.3,-1.95,-2.79,-2.87,0,*6A
1501034522.38,6661,18.31,72920.5,-1.95,-2.87,-2.87,0,*6A
1501034523.57,6662,18.31,72922.3,-1.97,-2.99,-2.99,0,*6B
1501034524.75,6663,18.31,72916.0,-1.97,-2.99,-2.99,0,*6A
1501034525.97,6664,18.31,72920.5,-1.95,-2.91,-3.03,0,*65
1501034527.18,6665,18.31,72918.8,-1.95,-2.99,-3.03,0,*6C
1501034528.4,6666,18.31,72918.8,-1.95,-2.99,-2.99,0,*6D
1501034529.63,6667,18.31,72918.8,-1.97,-2.71,-2.71,0,*6E
1501034530.88,6668,18.31,72922.5,-1.95,-2.35,-2.47,0,*66
1501034532.09,6669,18.31,72920.3,-1.95,-2.35,-2.39,0,*6E
1501034533.36,6670,18.31,72920.0,-1.95,-2.47,-2.51,0,*6D
1501034534.54,6671,18.31,72920.0,-1.93,-2.43,-2.43,0,*6D
1501034535.81,6672,18.31,72920.3,-1.91,-2.55,-2.59,0,*60
1501034537.07,6673,18.31,72920.5,-1.91,-2.55,-2.47,0,*6E
1501034538.29,6674,18.31,72922.5,-1.93,-2.43,-2.47,0,*6C
1501034539.53,6675,18.31,72920.3,-1.91,-2.43,-2.47,0,*6F
1501034540.8,6676,18.31,72918.8,-1.91,-2.47,-2.59,0,*67
1501034542.07,6677,18.31,72916.8,-1.91,-2.47,-2.47,0,*69
1501034543.33,6678,18.31,72922.8,-1.91,-2.71,-2.67,0,*61
1501034544.6,6679,18.31,72916.5,-1.91,-2.71,-2.71,0,*67
1501034545.87,6680,18.31,72918.3,-1.91,-2.75,-2.75,0,*61
1501034547.14,6681,18.31,72918.5,-1.91,-2.75,-2.75,0,*60
1501034548.4,6682,18.31,72918.0,-1.91,-2.55,-2.55,0,*63
1501034549.61,6683,18.31,72918.5,-1.91,-2.43,-2.43,0,*62
1501034550.85,6684,18.31,72920.0,-1.89,-2.67,-2.67,0,*6C
1501034552.09,6685,18.31,72922.5,-1.89,-2.67,-2.67,0,*6D
1501034553.34,6686,18.31,72920.5,-1.89,-2.63,-2.63,0,*6E
1501034554.61,6687,18.31,72918.0,-1.87,-2.47,-2.51,0,*66
1501034555.81,6688,18.31,72922.3,-1.87,-2.23,-2.27,0,*6A
1501034557.02,6689,18.31,72920.8,-1.87,-2.23,-2.27,0,*6B
1501034558.21,6690,18.31,72916.0,-1.89,-2.43,-2.31,0,*6C
1501034559.46,6691,18.31,72920.8,-1.87,-2.59,-2.59,0,*66
1501034560.73,6692,18.31,72918.5,-1.87,-2.63,-2.63,0,*65
1501034562.0,6693,18.31,72922.3,-1.87,-2.63,-2.75,0,*63
1501034563.26,6694,18.31,72922.0,-1.87,-2.67,-2.75,0,*60
1501034564.44,6695,18.31,72922.3,-1.89,-2.91,-2.91,0,*6C
1501034565.7,6696,18.31,72924.3,-1.87,-2.75,-2.75,0,*61
1501034566.91,6697,18.31,72918.5,-1.89,-2.71,-2.79,0,*66
1501034568.12,6698,18.31,72922.3,-1.87,-2.79,-2.87,0,*6E
1501034569.33,6699,18.31,72916.5,-1.87,-2.91,-2.87,0,*69
1501034570.54,6700,18.31,72918.5,-1.87,-2.99,-2.99,0,*6F
1501034571.73,6701,18.31,72920.0,-1.89,-3.07,-3.03,0,*64
1501034572.93,6702,18.31,72918.8,-1.89,-2.95,-2.95,0,*63
1501034574.11,6703,18.31,72918.3,-1.89,-2.83,-2.83,0,*62
1501034575.29,6704,18.31,72916.8,-1.85,-2.79,-2.79,0,*69
1501034576.5,6705,18.31,72918.8,-1.87,-2.79,-2.79,0,*6A
1501034577.76,6706,18.31,72920.0,-1.87,-2.67,-2.67,0,*69
1501034578.95,6707,18.31,72920.5,-1.89,-2.79,-2.79,0,*66
1501034580.15,6708,18.31,72918.5,-1.87,-2.79,-2.79,0,*67
1501034581.36,6709,18.31,72922.3,-1.87,-2.87,-2.79,0,*67
1501034582.55,6710,18.31,72920.3,-1.89,-2.87,-2.87,0,*60
1501034583.75,6711,18.31,72920.0,-1.87,-2.79,-2.91,0,*69
1501034584.94,6712,18.31,72918.5,-1.85,-2.87,-2.87,0,*6E
1501034586.13,6713,18.31,72922.3,-1.89,-2.95,-3.03,0,*6D
1501034587.33,6714,18.31,72916.8,-1.89,-2.95,-3.03,0,*6A
1501034588.52,6715,18.31,72920.8,-1.89,-3.03,-2.95,0,*6B
1501034589.73,6716,18.31,72920.5,-1.87,-2.99,-2.99,0,*68
1501034590.91,6717,18.31,72920.3,-1.89,-2.91,-2.91,0,*67
1501034592.12,6718,18.31,72922.8,-1.87,-2.79,-2.79,0,*66
1501034593.33,6719,18.31,72916.0,-1.87,-2.87,-2.87,0,*67
1501034594.52,6720,18.31,72920.3,-1.89,-2.95,-2.91,0,*67
1501034595.72,6721,18.31,72916.5,-1.87,-2.87,-2.79,0,*6D
1501034596.91,6722,18.31,72920.5,-1.89,-2.79,-2.87,0,*60
1501034598.15,6723,18.31,72920.5,-1.89,-2.71,-2.71,0,*60
1501034599.33,6724,18.31,72920.3,-1.89,-2.91,-2.91,0,*67
1501034600.52,6725,18.31,72920.5,-1.89,-3.03,-3.07,0,*62
1501034601.7,6726,18.31,72922.5,-1.89,-3.07,-3.07,0,*65
1501034602.91,6727,18.31,72920.3,-1.87,-3.11,-3.11,0,*6A
1501034604.1,6728,18.31,72922.5,-1.89,-3.07,-3.07,0,*6B
1501034605.29,6729,18.31,72920.0,-1.89,-3.07,-3.03,0,*6E
1501034606.49,6730,18.31,72920.5,-1.87,-2.99,-2.91,0,*64
1501034607.68,6731,18.31,72920.0,-1.89,-2.83,-2.83,0,*63
1501034608.86,6732,18.31,72922.5,-1.89,-2.91,-2.95,0,*64
1501034610.05,6733,18.31,72918.8,-1.89,-2.95,-2.91,0,*65
1501034611.24,6734,18.31,72920.8,-1.89,-2.95,-2.91,0,*62
1501034612.45,6735,18.31,72922.8,-1.87,-2.87,-2.87,0,*69
1501034613.64,6736,18.31,72922.0,-1.89,-2.83,-2.83,0,*64
1501034614.85,6737,18.31,72920.3,-1.87,-2.79,-2.83,0,*6E
1501034616.03,6738,18.31,72924.3,-1.89,-2.79,-2.83,0,*6F
1501034617.21,6739,18.31,72920.0,-1.89,-2.91,-2.91,0,*6B
1501034618.39,6740,18.31,72922.0,-1.89,-3.03,-2.91,0,*6F
1501034619.58,6741,18.31,72922.5,-1.89,-3.03,-3.07,0,*60
1501034620.79,6742,18.31,72922.5,-1.87,-2.99,-3.03,0,*6B
1501034621.99,6743,18.31,72922.3,-1.89,-2.95,-2.95,0,*66
1501034623.17,6744,18.31,72922.0,-1.89,-2.83,-2.79,0,*64
1501034624.35,6745,18.31,72922.0,-1.89,-2.83,-2.91,0,*63
1501034625.54,6746,18.31,72924.5,-1.85,-2.87,-2.87,0,*6F
1501034626.8,6747,18.31,72922.0,-1.87,-2.67,-2.67,0,*6C
1501034627.98,6748,18.31,72920.3,-1.89,-2.91,-2.79,0,*6B
1501034629.17,6749,18.31,72920.3,-1.89,-3.03,-2.95,0,*62
1501034630.36,6750,18.31,72920.0,-1.89,-3.03,-3.03,0,*64
1501034631.54,6751,18.31,72922.3,-1.89,-2.91,-3.03,0,*6F
1501034632.73,6752,18.31,72920.0,-1.89,-3.07,-3.07,0,*66
1501034633.91,6753,18.31,72916.3,-1.89,-3.07,-3.15,0,*64
1501034635.14,6754,18.31,72920.5,-1.87,-2.67,-2.79,0,*61
1501034636.4,6755,18.31,72922.5,-1.87,-2.67,-2.67,0,*6F
1501034637.59,6756,18.31,72918.8,-1.89,-3.03,-3.03,0,*62
1501034638.78,6757,18.31,72922.3,-1.89,-3.03,-3.03,0,*63
1501034639.96,6758,18.31,72920.0,-1.89,-3.07,-3.19,0,*63
1501034641.14,6759,18.31,72920.0,-1.89,-3.15,-3.19,0,*61
1501034642.32,6760,18.31,72920.3,-1.89,-2.91,-2.91,0,*67
1501034643.52,6761,18.31,72922.0,-1.89,-2.95,-3.03,0,*68
1501034644.7,6762,18.31,72922.0,-1.89,-3.03,-3.15,0,*62
1501034645.89,6763,18.31,72922.8,-1.89,-3.07,-3.07,0,*64
1501034647.07,6764,18.31,72922.3,-1.89,-3.15,-3.15,0,*63
1501034648.26,6765,18.31,72920.8,-1.89,-3.07,-3.07,0,*62
1501034649.45,6766,18.31,72920.0,-1.89,-3.07,-3.07,0,*61
1501034650.64,6767,18.31,72920.5,-1.89,-3.15,-3.07,0,*63
1501034651.82,6768,18.31,72918.3,-1.89,-3.07,-3.15,0,*6C
1501034653.01,6769,18.31,72920.3,-1.89,-3.03,-3.03,0,*6E
1501034654.2,6770,18.31,72918.3,-1.89,-3.03,-2.95,0,*68
1501034655.39,6771,18.31,72918.3,-1.89,-3.03,-3.03,0,*67
1501034656.57,6772,18.31,72922.5,-1.89,-3.03,-3.07,0,*60
1501034657.79,6773,18.31,72918.5,-1.91,-3.11,-3.11,0,*6C
1501034658.99,6774,18.31,72922.8,-1.87,-3.11,-3.15,0,*68
1501034660.18,6775,18.31,72916.5,-1.89,-3.07,-3.03,0,*67
1501034661.37,6776,18.31,72918.8,-1.89,-3.15,-3.15,0,*60
1501034662.55,6777,18.31,72920.5,-1.89,-3.07,-3.07,0,*61
1501034663.77,6778,18.31,72920.5,-1.91,-2.99,-3.07,0,*61
1501034664.98,6779,18.31,72920.0,-1.91,-2.99,-2.99,0,*66
1501034666.17,6780,18.31,72920.3,-1.89,-3.03,-3.03,0,*69
1501034667.36,6781,18.31,72920.3,-1.89,-3.15,-3.15,0,*68
1501034668.57,6782,18.31,72920.3,-1.91,-3.19,-3.19,0,*62
1501034669.78,6783,18.31,72922.5,-1.91,-3.19,-3.19,0,*63
1501034670.99,6784,18.31,72920.3,-1.91,-3.19,-3.19,0,*64
1501034672.2,6785,18.31,72918.5,-1.91,-3.19,-3.19,0,*65
1501034673.38,6786,18.31,72916.0,-1.93,-3.19,-3.23,0,*6D
1501034674.56,6787,18.31,72918.5,-1.93,-3.11,-3.11,0,*65
1501034675.75,6788,18.31,72920.3,-1.93,-3.19,-3.19,0,*6A
1501034676.93,6789,18.31,72920.5,-1.89,-3.15,-3.15,0,*60
1501034678.11,6790,18.31,72918.0,-1.93,-3.19,-3.23,0,*6A
1501034679.32,6791,18.25,72916.8,-1.91,-3.19,-3.23,0,*69
1501034680.5,6792,18.31,72916.8,-1.93,-3.23,-3.31,0,*62
1501034681.68,6793,18.31,72916.8,-1.93,-3.23,-3.31,0,*63
1501034682.87,6794,18.31,72918.8,-1.93,-3.31,-3.35,0,*63
1501034684.08,6795,18.31,72916.0,-1.91,-3.31,-3.31,0,*64
1501034685.26,6796,18.31,72920.0,-1.93,-3.23,-3.23,0,*65
1501034686.44,6797,18.31,72920.3,-1.93,-3.19,-3.11,0,*6C
1501034687.62,6798,18.31,72922.0,-1.93,-3.23,-3.31,0,*68
1501034688.83,6799,18.31,72920.0,-1.91,-3.19,-3.31,0,*62
1501034690.01,6800,18.31,72920.3,-1.93,-3.23,-3.31,0,*66
1501034691.23,6801,18.31,72918.0,-1.95,-3.27,-3.27,0,*62
1501034692.41,6802,18.31,72916.5,-1.93,-3.19,-3.23,0,*6E
1501034693.6,6803,18.31,72916.8,-1.93,-3.31,-3.31,0,*66
1501034694.78,6804,18.31,72918.8,-1.93,-3.23,-3.23,0,*61
1501034695.96,6805,18.31,72922.5,-1.93,-3.23,-3.11,0,*61
1501034697.15,6806,18.31,72922.0,-1.93,-3.31,-3.31,0,*63
1501034698.33,6807,18.31,72916.0,-1.93,-3.35,-3.31,0,*66
1501034699.55,6808,18.31,72922.0,-1.95,-3.39,-3.39,0,*6B
1501034700.77,6809,18.31,72922.3,-1.95,-3.35,-3.39,0,*66
1501034701.98,6810,18.31,72922.8,-1.95,-3.23,-3.27,0,*66
1501034703.19,6811,18.31,72920.3,-1.95,-3.23,-3.27,0,*67
1501034704.41,6812,18.31,72920.0,-1.95,-3.11,-3.03,0,*63
1501034705.59,6813,18.31,72922.0,-1.97,-3.15,-3.23,0,*66
1501034706.79,6814,18.31,72918.8,-1.95,-3.23,-3.23,0,*66
1501034708.0,6815,18.31,72920.0,-1.95,-3.15,-3.15,0,*67
1501034709.21,6816,18.31,72922.5,-1.95,-3.11,-3.15,0,*60
1501034710.42,6817,18.31,72918.8,-1.95,-3.03,-3.11,0,*66
1501034711.63,6818,18.31,72918.3,-1.95,-3.15,-3.23,0,*6F
1501034712.85,6819,18.31,72916.0,-1.95,-3.27,-3.27,0,*6B
1501034714.07,6820,18.31,72916.3,-1.95,-3.27,-3.27,0,*61
1501034715.29,6821,18.31,72916.5,-1.95,-3.35,-3.35,0,*60
1501034716.51,6822,18.31,72918.3,-1.95,-3.27,-3.15,0,*62
1501034717.72,6823,18.31,72918.5,-1.95,-3.23,-3.27,0,*66
1501034718.93,6824,18.31,72916.8,-1.95,-3.35,-3.35,0,*65
1501034720.14,6825,18.31,72920.8,-1.95,-3.27,-3.23,0,*60
1501034721.33,6826,18.31,72918.5,-1.97,-3.23,-3.35,0,*62
1501034722.51,6827,18.31,72916.5,-1.97,-3.35,-3.35,0,*64
1501034723.7,6828,18.31,72916.5,-1.97,-3.27,-3.27,0,*6B
1501034724.92,6829,18.31,72922.0,-1.95,-3.15,-3.11,0,*6C
1501034726.13,6830,18.31,72922.3,-1.95,-3.15,-3.23,0,*65
1501034727.34,6831,18.31,72918.5,-1.95,-3.15,-3.23,0,*64
1501034728.52,6832,18.31,72920.5,-1.97,-3.15,-3.15,0,*60
1501034729.7,6833,18.31,72918.8,-1.97,-3.11,-3.23,0,*60
1501034730.91,6834,18.31,72916.0,-1.95,-3.15,-3.23,0,*61
1501034732.09,6835,18.31,72920.5,-1.97,-3.15,-3.23,0,*62
1501034733.29,6836,18.31,72920.5,-1.95,-3.23,-3.23,0,*66
1501034734.46,6837,18.31,72920.0,-1.97,-3.23,-3.23,0,*65
1501034735.64,6838,18.31,72918.8,-1.97,-3.23,-3.23,0,*6A
1501034736.82,6839,18.31,72918.3,-1.97,-3.15,-3.23,0,*6E
1501034738.02,6840,18.31,72920.3,-1.95,-3.23,-3.23,0,*67
1501034739.23,6841,18.25,72914.3,-1.95,-3.15,-3.23,0,*63
1501034740.41,6842,18.31,72916.3,-1.97,-3.15,-3.15,0,*67
1501034741.59,6843,18.31,72916.5,-1.97,-3.23,-3.15,0,*63
1501034742.8,6844,18.31,72916.8,-1.95,-3.15,-3.23,0,*66
1501034743.98,6845,18.31,72918.3,-1.97,-3.15,-3.23,0,*65
1501034745.19,6846,18.31,72920.3,-1.95,-3.15,-3.15,0,*61
1501034746.37,6847,18.31,72920.0,-1.97,-3.23,-3.23,0,*62
1501034747.58,6848,18.31,72916.5,-1.95,-3.35,-3.35,0,*6F
1501034748.8,6849,18.31,72918.5,-1.95,-3.35,-3.39,0,*62
1501034750.03,6850,18.31,72918.0,-1.95,-3.35,-3.47,0,*63
1501034751.25,6851,18.31,72918.3,-1.95,-3.27,-3.27,0,*67
1501034752.44,6852,18.31,72918.3,-1.97,-3.23,-3.27,0,*62
1501034753.65,6853,18.31,72918.3,-1.95,-3.35,-3.39,0,*69
1501034754.87,6854,18.31,72916.0,-1.95,-3.27,-3.35,0,*61
1501034756.05,6855,18.31,72916.5,-1.97,-3.15,-3.23,0,*64
1501034757.23,6856,18.31,72922.3,-1.97,-2.91,-2.91,0,*62
1501034758.41,6857,18.31,72916.5,-1.97,-3.03,-3.03,0,*63
1501034759.59,6858,18.31,72920.0,-1.97,-3.23,-3.23,0,*6C
1501034760.78,6859,18.31,72920.3,-1.97,-3.27,-3.27,0,*6D
1501034761.99,6860,18.31,72916.0,-1.95,-3.23,-3.27,0,*61
1501034763.2,6861,18.25,72914.0,-1.95,-3.03,-3.11,0,*67
1501034764.38,6862,18.25,72914.3,-1.97,-3.11,-3.15,0,*61
1501034765.57,6863,18.31,72922.8,-1.97,-3.27,-3.35,0,*67
1501034766.76,6864,18.31,72918.8,-1.97,-3.35,-3.27,0,*60
1501034767.98,6865,18.31,72918.0,-1.95,-3.23,-3.27,0,*64
1501034769.16,6866,18.31,72922.3,-1.97,-3.23,-3.27,0,*65
1501034770.35,6867,18.31,72918.8,-1.97,-3.27,-3.35,0,*63
1501034771.54,6868,18.31,72918.3,-1.97,-3.27,-3.27,0,*6F
1501034772.73,6869,18.31,72918.5,-1.97,-3.35,-3.35,0,*6E
1501034773.93,6870,18.31,72916.5,-1.97,-3.35,-3.47,0,*63
1501034775.12,6871,18.31,72918.5,-1.97,-3.27,-3.35,0,*64
1501034776.29,6872,18.31,72916.0,-1.97,-3.23,-3.23,0,*64
1501034777.47,6873,18.31,72918.8,-1.97,-3.15,-3.23,0,*60
1501034778.66,6874,18.31,72916.3,-1.97,-3.15,-3.15,0,*62
1501034779.84,6875,18.31,72918.8,-2.01,-3.19,-3.15,0,*63
1501034781.06,6876,18.31,72916.5,-1.99,-3.19,-3.27,0,*63
1501034782.24,6877,18.31,72918.0,-1.97,-3.35,-3.35,0,*61
1501034783.42,6878,18.31,72916.8,-1.97,-3.27,-3.23,0,*6A
1501034784.61,6879,18.31,72916.8,-1.97,-3.15,-3.15,0,*6F
1501034785.79,6880,18.31,72918.0,-1.97,-3.11,-3.15,0,*6D
1501034786.97,6881,18.31,72916.5,-1.97,-3.11,-3.11,0,*68
1501034788.19,6882,18.31,72918.8,-1.99,-3.19,-3.27,0,*68
1501034789.41,6883,18.31,72918.5,-1.99,-3.39,-3.39,0,*64
1501034790.64,6884,18.31,72916.3,-1.99,-3.31,-3.43,0,*66
1501034791.85,6885,18.31,72918.3,-1.99,-3.19,-3.19,0,*62
1501034793.04,6886,18.31,72916.5,-1.97,-2.79,-2.79,0,*6F
1501034794.27,6887,18.31,72916.8,-1.97,-2.71,-2.63,0,*6D
1501034795.51,6888,18.31,72916.8,-1.97,-2.59,-2.63,0,*68
1501034796.78,6889,18.31,72918.0,-1.95,-2.71,-2.71,0,*62
1501034798.02,6890,18.31,72918.3,-1.97,-2.71,-2.71,0,*68
1501034799.23,6891,18.31,72920.0,-1.97,-2.79,-2.75,0,*65
1501034800.44,6892,18.31,72918.0,-1.95,-2.79,-2.87,0,*69
1501034801.65,6893,18.31,72918.5,-1.95,-2.87,-2.91,0,*6E
1501034802.86,6894,18.31,72920.0,-1.95,-2.91,-2.91,0,*6E
1501034804.13,6895,18.31,72916.8,-1.95,-2.63,-2.71,0,*6C
1501034805.39,6896,18.31,72918.3,-1.95,-2.59,-2.63,0,*65
1501034806.61,6897,18.31,72918.0,-1.95,-2.87,-2.87,0,*6D
1501034807.82,6898,18.31,72918.3,-1.95,-3.03,-2.99,0,*60
1501034809.04,6899,18.31,72918.3,-1.95,-3.03,-3.03,0,*63
1501034810.25,6900,18.31,72918.3,-1.95,-2.99,-3.03,0,*60
1501034811.46,6901,18.31,72916.0,-1.95,-2.91,-2.91,0,*63
1501034812.66,6902,18.31,72918.8,-1.95,-2.91,-2.91,0,*60
1501034813.87,6903,18.31,72916.8,-1.93,-2.75,-2.83,0,*6E
1501034815.11,6904,18.31,72916.8,-1.93,-2.55,-2.55,0,*60
1501034816.3,6905,18.31,72920.8,-1.93,-2.35,-2.35,0,*61
1501034817.54,6906,18.31,72916.5,-1.93,-2.67,-2.71,0,*65
1501034818.75,6907,18.31,72918.8,-1.91,-2.83,-2.83,0,*61
1501034819.93,6908,18.31,72918.5,-1.93,-2.87,-2.87,0,*6C
1501034821.15,6909,18.25,72916.0,-1.91,-2.99,-3.07,0,*69
1501034822.37,6910,18.31,72916.3,-1.91,-2.95,-2.99,0,*6B
1501034823.56,6911,18.31,72920.0,-1.93,-2.87,-2.99,0,*6B
1501034824.78,6912,18.31,72918.8,-1.91,-2.87,-2.95,0,*66
1501034825.99,6913,18.25,72916.0,-1.91,-3.07,-2.95,0,*6E
1501034827.21,6914,18.31,72916.8,-1.91,-3.07,-3.07,0,*63
1501034828.42,6915,18.31,72916.3,-1.91,-2.99,-3.07,0,*64
1501034829.61,6916,18.31,72918.3,-1.89,-3.03,-3.03,0,*68
1501034830.8,6917,18.25,72912.5,-1.89,-3.03,-3.07,0,*6D
1501034832.01,6918,18.31,72916.3,-1.91,-3.19,-3.11,0,*67
1501034833.22,6919,18.31,72916.5,-1.91,-3.11,-3.11,0,*6E
1501034834.41,6920,18.31,72918.3,-1.93,-2.99,-2.99,0,*66
1501034835.61,6921,18.31,72918.3,-1.93,-2.95,-3.07,0,*6D
1501034836.83,6922,18.31,72918.0,-1.91,-2.95,-2.99,0,*6A
1501034838.02,6923,18.31,72918.8,-1.89,-3.03,-3.03,0,*6E
1501034839.23,6924,18.31,72918.8,-1.91,-3.07,-2.99,0,*66
1501034840.46,6925,18.31,72916.0,-1.91,-2.95,-2.99,0,*6D
1501034841.68,6926,18.31,72918.8,-1.91,-2.95,-2.99,0,*6E
1501034842.87,6927,18.31,72918.0,-1.89,-2.99,-2.99,0,*6A
1501034844.09,6928,18.25,72916.5,-1.91,-2.99,-2.95,0,*60
1501034845.28,6929,18.31,72916.0,-1.89,-2.95,-2.95,0,*64
1501034846.5,6930,18.31,72922.5,-1.91,-2.99,-2.99,0,*65
1501034847.71,6931,18.31,72920.0,-1.91,-2.83,-2.87,0,*60
1501034848.9,6932,18.31,72920.3,-1.89,-3.03,-3.03,0,*6E
1501034850.08,6933,18.31,72918.5,-1.89,-3.07,-3.15,0,*6C
1501034851.27,6934,18.25,72916.3,-1.89,-3.07,-3.15,0,*6B
1501034852.48,6935,18.31,72918.5,-1.91,-3.07,-3.07,0,*60
1501034853.67,6936,18.31,72918.8,-1.89,-3.07,-3.07,0,*6A
1501034854.88,6937,18.31,72916.0,-1.91,-3.19,-3.11,0,*6A
1501034856.06,6938,18.31,72918.8,-1.89,-3.15,-3.15,0,*64
1501034857.25,6939,18.31,72916.8,-1.93,-3.19,-3.19,0,*6E
1501034858.43,6940,18.31,72916.5,-1.93,-3.23,-3.19,0,*69
1501034859.61,6941,18.31,72918.0,-1.93,-3.35,-3.31,0,*65
1501034860.8,6942,18.31,72916.5,-1.93,-3.35,-3.35,0,*62
1501034861.99,6943,18.31,72920.3,-1.93,-3.23,-3.35,0,*64
1501034863.18,6944,18.31,72918.5,-1.93,-3.35,-3.35,0,*64
1501034864.37,6945,18.31,72918.3,-1.93,-3.35,-3.35,0,*65
1501034865.6,6946,18.31,72918.0,-1.91,-3.31,-3.43,0,*61
1501034866.84,6947,18.31,72918.0,-1.95,-3.35,-3.47,0,*64
1501034868.05,6948,18.31,72920.8,-1.95,-3.35,-3.39,0,*62
1501034869.27,6949,18.31,72916.5,-1.95,-3.35,-3.39,0,*63
1501034870.49,6950,18.25,72918.3,-1.95,-3.27,-3.27,0,*67
1501034871.71,6951,18.31,72918.3,-1.95,-3.35,-3.35,0,*66
1501034872.92,6952,18.31,72920.0,-1.95,-3.35,-3.35,0,*65
1501034874.14,6953,18.31,72918.5,-1.95,-3.35,-3.39,0,*68
1501034875.38,6954,18.31,72918.5,-1.95,-3.39,-3.47,0,*6A
1501034876.63,6955,18.25,72914.8,-1.95,-3.47,-3.47,0,*62
1501034877.87,6956,18.31,72916.5,-1.97,-3.47,-3.59,0,*6C
1501034879.08,6957,18.31,72916.5,-1.97,-3.39,-3.51,0,*6C
1501034880.31,6958,18.31,72918.3,-1.97,-3.47,-3.47,0,*6D
1501034881.52,6959,18.31,72916.0,-1.95,-3.39,-3.39,0,*6E
1501034882.7,6960,18.25,72916.0,-1.97,-3.23,-3.15,0,*63
1501034883.89,6961,18.31,72918.0,-1.97,-3.27,-3.27,0,*67
1501034885.07,6962,18.31,72914.8,-1.97,-3.15,-3.23,0,*61
1501034886.28,6963,18.31,72914.8,-1.95,-3.23,-3.27,0,*63
1501034887.47,6964,18.31,72916.0,-1.97,-3.27,-3.35,0,*61
1501034888.66,6965,18.31,72914.3,-1.97,-3.35,-3.27,0,*60
1501034889.85,6966,18.31,72918.8,-1.97,-3.27,-3.27,0,*60
1501034891.04,6967,18.31,72918.0,-1.97,-3.35,-3.35,0,*61
1501034892.23,6968,18.31,72918.3,-1.97,-3.27,-3.27,0,*6E
1501034893.41,6969,18.31,72916.8,-1.97,-3.15,-3.23,0,*6A
1501034894.63,6970,18.25,72912.3,-1.99,-3.27,-3.27,0,*69
1501034895.85,6971,18.31,72918.5,-1.99,-3.27,-3.27,0,*68
1501034897.06,6972,18.31,72918.8,-1.95,-3.23,-3.23,0,*67
1501034898.23,6973,18.31,72918.8,-1.97,-3.23,-3.23,0,*64
1501034899.4,6974,18.31,72918.0,-1.97,-3.23,-3.23,0,*63
1501034900.59,6975,18.31,72916.0,-1.97,-3.15,-3.15,0,*62
1501034901.77,6976,18.25,72914.8,-1.97,-3.03,-3.11,0,*62
1501034902.96,6977,18.31,72918.0,-1.97,-3.11,-3.11,0,*60
1501034904.13,6978,18.31,72922.0,-1.97,-3.23,-3.15,0,*6A
1501034905.34,6979,18.31,72916.8,-1.95,-3.23,-3.35,0,*6B
1501034906.56,6980,18.25,72914.8,-1.99,-3.27,-3.31,0,*61